Home   Weather   Wittlich   Past weeks

Flag for Germany Past Weather in Wittlich, Rhineland-Palatinate, Germany — Yesterday and Last 2 Weeks

Now
25 °F

Light freezing rain. Ice fog.


Feels Like: 19 °F
Forecast: 33 / 46 °F
Wind: 5 mph from West

Location: Spangdahlem

Current Time: Dec 8, 2016 at 3:30:13 am

Latest Report: Dec 8, 2016 at 3:00 am


Visibility: 0 mi

Pressure: 30.50 "Hg

Humidity: 100%

Dew Point: 25 °F

Location of WittlichLocation

Past Weather in Wittlich — Graph

°F

Wittlich Temperature Yesterday

Maximum temperature yesterday: 34 °F (at 2:58 pm)
Minimum temperature yesterday: 23 °F (at 5:03 am)
Average temperature yesterday: 28 °F

High & Low Weather Summary for the Past Weeks

 TemperatureHumidityPressure
High59 °F (Nov 23, 2:58 pm)100% (Nov 23, 2:04 am)30.57 "Hg (Nov 23, 2:04 am)
Low19 °F (Nov 30, 6:58 am)48% (Nov 29, 12:58 pm)29.95 "Hg (Nov 23, 1:58 am)
Average35 °F84%30.27 "Hg
* Reported Nov 23 1:58 am — Dec 8 1:58 am, Wittlich, Weather by CustomWeather, © 2016

Note: Actual official high and low records may vary slightly from our data, if they occured in-between our weather recording intervals... More about our weather records

Advertising

Wittlich Weather History for the Previous 24 Hours

Scroll right to see more
 ConditionsComfort  
Time TempWeatherWind HumidityBarometerVisibility
1:58 am
Thu, Dec 8
25 °FIce fog.No wind100%30.55 "Hg0 mi
12:58 am27 °FIce fog.3 mph99%30.55 "Hg4 mi
11:58 pm
Wed, Dec 7
29 °FIce fog.5 mph99%30.56 "Hg6 mi
10:58 pm29 °FClear.3 mph98%30.55 "HgN/A
9:58 pm29 °FPassing clouds.3 mph98%30.55 "HgN/A
8:58 pm31 °FPassing clouds.3 mph94%30.56 "HgN/A
7:58 pm31 °FPartly cloudy.3 mph93%30.55 "HgN/A
6:58 pm30 °FPassing clouds.3 mph94%30.55 "HgN/A
5:58 pm30 °FPassing clouds.3 mph93%30.55 "HgN/A
4:58 pm32 °FClear.No wind87%30.53 "HgN/A
3:58 pm33 °FPassing clouds.No wind88%30.53 "HgN/A
2:58 pm34 °FSunny.3 mph86%30.53 "HgN/A
1:58 pm33 °FSunny.6 mph85%30.53 "HgN/A
12:58 pm31 °FSunny.5 mph93%30.52 "HgN/A
11:58 am29 °FSunny.No wind91%30.55 "HgN/A
10:58 am28 °FSunny.No wind95%30.56 "HgN/A
10:02 am27 °FLight freezing rain. Passing clouds.No wind93%30.50 "HgN/A
9:58 am27 °FSunny.No wind93%30.55 "HgN/A
8:58 am26 °FPassing clouds.6 mph94%30.53 "HgN/A
7:58 am23 °FPassing clouds.No wind96%30.53 "HgN/A
6:58 am23 °FClear.No wind100%30.53 "HgN/A
5:59 am23 °FIce fog.No wind93%30.48 "Hg6 mi
5:58 am23 °FIce fog.No wind93%30.54 "Hg4 mi
5:03 am23 °FIce fog.No wind100%30.49 "Hg1 mi
4:58 am25 °FIce fog.No wind93%30.53 "Hg1 mi
3:58 am25 °FClear.No wind100%30.53 "HgN/A
Weather by CustomWeather, © 2016

See weather overviewHow to use our weather pages